Location: Boiro
(42.6475°N, 8.8834°W)
Time: 17:32:51
(UTC+01:00)

Transit 2A - Pass Details

Date: 09 December 2021
Orbit: 591 x 967 km, 66.7° (Epoch: 20 January)

Event Time Altitude Azimuth Distance (km) Brightness Sun altitude
Rises 01:52:48 0° 250° (WSW) 3,370 - -69.5°
Reaches altitude 10° 01:55:36 10° 263° (W) 2,501 - -69.3°
Maximum altitude 02:00:24 25° 318° (NW) 1,733 - -69.0°
Drops below altitude 10° 02:05:29 10° 13° (NNE) 2,670 - -68.7°
Sets 02:08:36 0° 26° (NNE) 3,646 - -68.4°
